GEN1A-2

导读

GEN1A-2(NORAD编号69005)是一颗近地轨道人造卫星,由商业航天项目研发部署,主要用于技术验证与空间环境观测任务。该卫星采用轻量化设计,搭载多组太阳能电池阵提供稳定能源,配备多台光学观测设备与环境传感器,可对航天器姿态、空间辐射及大气参数进行持续监测。其设计寿命约5年,运行轨道高度约500公里,目前仍在轨正常工作,为航天技术研发提供了宝贵的实测数据,也为后续同类型小型卫星的设计优化积累了工程经验。

基本信息
目录编号:
69005
目录名称:
GEN1A-2
国际标识:
2026-100AB
轨道中心:
EARTH
卫星名称:
GEN1A-2
卫星全名:
GEN1A-2
卫星状态:
在轨 (已飞行45 天)
发射日期:
2026-05-03 UTC
国别 :
美国 (US)
星等 :
--
轨道信息
数据来源 国际轨道数据 AOE轨道数据
星历时间 2026-06-17T07:05:44+0800
9小时前
查看轨道信息
2026-06-14T02:00:00+0800
3天前
查看轨道信息
半长轴 6883.087km 6883.122km
偏心率 0.0006084 0.0006362
轨道倾角 97.404° 97.405°
近地点辐角 36.392° 44.560°
升交点赤经 65.776° 62.621°
平近点角 323.772° 25.757°
近地点 500.762km 500.605km
远地点 509.138km 509.365km
周期 94.718分钟 94.719分钟
每日圈数 15.202953 15.202837
详细信息
使用方式:
暂无
2D轨道图
3D轨道图
轨道高度分析图
轨道倾角分析图
轨道综合分析图
查看轨道综合分析图